Sitka, AK

5:37 AM AKST on January 18, 2017 (GMT -0900)
Sitka Rocky Gutierrez

Weather History for PASI - August, 2013

Change the Weather History Date:

Sunday, August 25, 2013

  Actual Average Record
Temperature  
Mean Temperature 64 °F -  
Max Temperature 66 °F 61 °F 75 °F (1988)
Min Temperature 61 °F 51 °F 44 °F (1965)
Degree Days  
Heating Degree Days 2    
Growing Degree Days 14 (Base 50)    
Moisture  
Dew Point 52 °F    
Average Humidity 66    
Maximum Humidity 83    
Minimum Humidity 60    
Precipitation  
Precipitation 0.02 in - - ()
Sea Level Pressure  
Sea Level Pressure 29.62 in    
Wind  
Wind Speed 12 mph (ESE)    
Max Wind Speed 15 mph    
Max Gust Speed 26 mph    
Visibility 10 miles    
Events Rain    
Averages and records for this station are not official NWS values.
T = Trace of Precipitation, MM = Missing Value Source: NWS Daily Summary

Daily Weather History Graph

Daily Weather History Graph

Search for Another Location

Airport or City:

Trip Planner

Search our weather history database for the weather conditions in past years. The results will help you decide how hot, cold, wet, or windy it might be!

Date:

Astronomy

Aug. 25, 2013 Rise Set
Actual Time 5:49 AM AKDT 8:15 PM AKDT
Civil Twilight 5:07 AM AKDT 8:57 PM AKDT
Nautical Twilight 4:12 AM AKDT 9:51 PM AKDT
Astronomical Twilight 3:02 AM AKDT 10:59 PM AKDT
Moon 9:34 PM AKDT (8/25) 12:13 PM AKDT (8/25)
Length of Visible Light 15h 49m
Length of Day
14h 25m
Waning Gibbous, 74% of the Moon is Illuminated
Aug 25
Waning Gibbous
Aug 28
Last Quarter
Sep 5
New
Sep 12
First Quarter
Sep 19
Full

Hourly Weather History & Observations

Time (AKDT) Temp. Dew Point Humidity Pressure Visibility Wind Dir Wind Speed Gust Speed Precip Events Conditions
12:53 AM 61.0 °F 51.1 °F 70% 29.58 in 10.0 mi ESE 9.2 mph - N/A   Mostly Cloudy
1:53 AM 62.1 °F - N/A% 29.58 in 10.0 mi ESE 13.8 mph - N/A   Mostly Cloudy
2:53 AM 63.0 °F - N/A% 29.57 in 10.0 mi SE 12.7 mph - N/A   Overcast
3:53 AM 62.1 °F - N/A% 29.57 in 10.0 mi ESE 13.8 mph 26.5 mph 0.00 in   Overcast
4:53 AM 63.0 °F - N/A% 29.57 in 10.0 mi ESE 12.7 mph - N/A   Overcast
5:53 AM 62.1 °F - N/A% 29.57 in 10.0 mi ESE 13.8 mph - 0.00 in   Overcast
6:53 AM 63.0 °F 50.0 °F 63% 29.57 in 10.0 mi ESE 15.0 mph 23.0 mph N/A   Overcast
7:53 AM 62.1 °F 51.1 °F 67% 29.59 in 10.0 mi ESE 13.8 mph - 0.01 in Rain Light Rain
8:53 AM 64.0 °F 50.0 °F 60% 29.60 in 10.0 mi SE 12.7 mph - 0.00 in   Overcast
9:53 AM 64.0 °F 50.0 °F 60% 29.62 in 10.0 mi ESE 13.8 mph - N/A   Overcast
10:53 AM 64.0 °F 51.1 °F 63% 29.64 in 10.0 mi ESE 13.8 mph - N/A   Overcast
11:53 AM 62.1 °F 54.0 °F 75% 29.65 in 10.0 mi Calm Calm - N/A   Overcast
12:53 PM 61.0 °F 55.9 °F 83% 29.65 in 10.0 mi NW 3.5 mph - 0.00 in   Overcast
1:53 PM 64.9 °F 53.1 °F 65% 29.66 in 10.0 mi ESE 8.1 mph - 0.00 in   Overcast
2:53 PM 66.0 °F 52.0 °F 60% 29.67 in 10.0 mi ESE 13.8 mph 21.9 mph N/A   Overcast
3:53 PM 64.9 °F 53.1 °F 65% 29.67 in 10.0 mi ESE 10.4 mph - N/A   Overcast
4:53 PM 64.9 °F 52.0 °F 63% 29.67 in 10.0 mi ESE 11.5 mph - N/A   Overcast
5:53 PM 64.0 °F 52.0 °F 65% 29.66 in 10.0 mi ESE 15.0 mph - N/A   Overcast
6:53 PM 63.0 °F 53.1 °F 70% 29.66 in 10.0 mi ESE 13.8 mph - 0.00 in Rain Light Rain
7:53 PM 63.0 °F 52.0 °F 67% 29.66 in 10.0 mi ESE 12.7 mph - 0.01 in   Mostly Cloudy
8:53 PM 64.0 °F 50.0 °F 60% 29.65 in 10.0 mi East 9.2 mph - 0.00 in   Overcast
9:53 PM 63.0 °F 51.1 °F 65% 29.63 in 10.0 mi ESE 11.5 mph - N/A   Overcast
10:53 PM 63.0 °F 52.0 °F 67% 29.63 in 10.0 mi SE 9.2 mph - 0.00 in   Overcast
11:53 PM 64.0 °F 51.1 °F 63% 29.63 in 10.0 mi ESE 12.7 mph - 0.00 in   Overcast